Location: Bothwell
(41.7170°N, 112.2589°W)
Time: 03:38:11
(UTC+00:00)

Vanguard 1 - Pass Details

Date: 16 May 2026
Orbit: 654 x 3816 km, 34.2° (Epoch: 10 June)

Event Time Altitude Azimuth Distance (km) Brightness Sun altitude
Rises 04:50:16 0° 277° (W) 5,559 14.6 -19.4°
Reaches altitude 10° 04:53:36 10° 271° (W) 4,923 14.1 -19.8°
Maximum altitude 05:07:36 43° 207° (SSW) 4,065 12.9 -21.3°
Enters shadow 05:19:00 27° 160° (SSE) 5,432 13.2 -22.5°
